Weather History for CXVN - January, 2013

Change the Weather History Date:

Tuesday, January 8, 2013

  Actual Average Record
Temperature  
Mean Temperature 34 °F -  
Max Temperature 39 °F - - ()
Min Temperature 30 °F - - ()
Degree Days  
Heating Degree Days 30    
Moisture  
Dew Point 28 °F    
Average Humidity 75    
Maximum Humidity 94    
Minimum Humidity 54    
Precipitation  
Precipitation 0.16 in - - ()
Sea Level Pressure  
Sea Level Pressure 30.21 in    
Wind  
Wind Speed 11 mph ()    
Max Wind Speed 17 mph    
Max Gust Speed 25 mph    
T = Trace of Precipitation, MM = Missing Value Source: Averaged Metar Reports

Daily Weather History Graph

Daily Weather History Graph

Search for Another Location

Airport or City:

Trip Planner

Search our weather history database for the weather conditions in past years. The results will help you decide how hot, cold, wet, or windy it might be!

Date:

Astronomy

Jan. 08, 2013 Rise Set
Actual Time 7:49 AM EST 5:00 PM EST
Civil Twilight 7:17 AM EST 5:32 PM EST
Nautical Twilight 6:41 AM EST 6:07 PM EST
Astronomical Twilight 6:07 AM EST 6:42 PM EST
Moon 4:19 AM EST (1/8) 2:01 PM EST (1/8)
Length of Visible Light 10h 15m
Length of Day
9h 11m
Waning Crescent, 14% of the Moon is Illuminated
Jan 8
Waning Crescent
Jan 11
New
Jan 18
First Quarter
Jan 26
Full
Feb 3
Last Quarter

Hourly Weather History & Observations

Time (EST) Temp. Windchill Dew Point Humidity Pressure Visibility Wind Dir Wind Speed Gust Speed Precip Events Conditions
12:00 AM 33.6 °F 23.3 °F 26.1 °F 74% 30.14 in - SW 16.1 mph 25.3 mph N/A   Unknown
1:00 AM 33 °F - 26 °F 66% 30.13 in - SW 15.0 mph - -  
1:00 AM 33.1 °F 23.0 °F 25.9 °F 75% 30.13 in - SW 15.0 mph 21.9 mph N/A   Unknown
2:00 AM 33.6 °F 22.9 °F 25.9 °F 73% 30.13 in - SW 17.3 mph 24.2 mph N/A   Unknown
3:00 AM 33.8 °F 23.2 °F 25.9 °F 73% 30.14 in - SW 17.3 mph 25.3 mph N/A   Unknown
4:00 AM 33.3 °F 22.8 °F 25.7 °F 74% 30.14 in - SW 16.1 mph - N/A   Unknown
5:00 AM 32.9 °F 23.2 °F 26.4 °F 77% 30.14 in - SW 13.8 mph 20.7 mph N/A   Unknown
6:00 AM 33.1 °F 23.9 °F 27.0 °F 78% 30.16 in - SW 12.7 mph - N/A   Unknown
7:00 AM 33 °F - 28 °F 73% 30.18 in - WSW 10.4 mph - -  
7:00 AM 33.4 °F 25.4 °F 27.5 °F 79% 30.18 in - WSW 10.4 mph - N/A   Unknown
8:00 AM 33.4 °F 25.4 °F 27.7 °F 79% 30.20 in - SW 10.4 mph - N/A   Unknown
9:00 AM 34.7 °F 27.5 °F 28.6 °F 78% 30.22 in - WSW 9.2 mph - N/A   Unknown
10:00 AM 36.1 °F 27.7 °F 28.9 °F 75% 30.24 in - WSW 12.7 mph - N/A   Unknown
11:00 AM 37.0 °F 29.3 °F 27.9 °F 69% 30.25 in - WSW 11.5 mph 19.6 mph N/A   Unknown
12:00 PM 37.6 °F 29.6 °F 28.0 °F 68% 30.24 in - WSW 12.7 mph 19.6 mph N/A   Unknown
1:00 PM 39 °F - 28 °F 54% 30.23 in - WSW 9.2 mph - -  
1:00 PM 39.2 °F 33.0 °F 28.0 °F 64% 30.23 in - WSW 9.2 mph - N/A   Unknown
2:00 PM 39.4 °F 33.8 °F 29.8 °F 69% 30.23 in - SW 8.1 mph - N/A   Unknown
3:00 PM 38.3 °F 31.9 °F 29.8 °F 72% 30.25 in - SW 9.2 mph - N/A   Unknown
4:00 PM 37.2 °F 31.9 °F 29.8 °F 75% 30.27 in - SW 6.9 mph - N/A   Unknown
5:00 PM 35.2 °F 30.3 °F 29.7 °F 80% 30.28 in - SW 5.8 mph - N/A   Unknown
6:00 PM 34.5 °F 31.6 °F 28.8 °F 79% 30.28 in - SW 3.5 mph - N/A   Unknown
7:00 PM 31.6 °F - 27.7 °F 85% 30.29 in - SSE 1.2 mph - N/A   Unknown
8:00 PM 32.0 °F - 28.8 °F 88% 30.28 in - SE 2.3 mph - N/A   Unknown
9:00 PM 30.7 °F 27.3 °F 28.2 °F 90% 30.27 in - ESE 3.5 mph - N/A   Unknown
11:00 PM 31.3 °F 26.6 °F 29.7 °F 94% 30.24 in - South 4.6 mph - N/A   Unknown